Total_Precipitation_Accumulation
0.71 0.89 1.07 1.32 1.54 1.76 1.85 1.87 1.85 1.84 1.85 1.85 1.75 1.55 1.34 1.27 1.17 1.13 1.17 1.16 1.16 1.20 1.09 0.91 0.88 0.91 0.82 0.73 0.71 0.71 0.67 0.58 0.55 0.50 0.35 0.25 0.21 0.18 0.14 0.13 0.12 0.12 0.13
0.61 0.69 0.88 1.07 1.34 1.59 1.84 1.91 1.91 1.95 1.81 1.65 1.71 1.70 1.63 1.49 1.37 1.31 1.27 1.23 1.22 1.23 1.22 1.16 1.09 1.08 1.05 1.00 0.93 0.91 0.85 0.77 0.76 0.68 0.60 0.40 0.26 0.19 0.16 0.16 0.16 0.16 0.17
0.54 0.59 0.69 0.79 1.06 1.34 1.65 1.83 1.93 1.97 1.97 1.91 2.02 1.96 1.86 1.64 1.39 1.23 1.23 1.25 1.28 1.30 1.26 1.26 1.25 1.24 1.21 1.14 1.10 1.08 1.05 0.97 0.92 0.87 0.88 0.64 0.38 0.26 0.21 0.20 0.21 0.21 0.20
0.53 0.59 0.64 0.71 0.89 1.12 1.35 1.54 1.82 2.01 2.08 2.14 2.09 1.97 1.76 1.53 1.31 1.28 1.39 1.42 1.39 1.35 1.33 1.31 1.31 1.31 1.24 1.17 1.23 1.26 1.16 1.15 1.09 1.04 0.95 0.80 0.61 0.52 0.37 0.27 0.27 0.28 0.27
0.53 0.58 0.64 0.70 0.82 1.01 1.20 1.33 1.55 1.86 1.96 1.91 1.89 1.96 1.83 1.62 1.51 1.48 1.46 1.44 1.37 1.32 1.28 1.28 1.30 1.29 1.27 1.19 1.21 1.27 1.29 1.26 1.21 1.15 1.10 1.08 0.93 0.77 0.69 0.51 0.38 0.37 0.36
0.61 0.63 0.68 0.72 0.75 0.85 1.05 1.23 1.32 1.53 1.69 1.67 1.72 1.79 1.71 1.64 1.54 1.41 1.37 1.39 1.35 1.26 1.21 1.21 1.23 1.27 1.28 1.24 1.22 1.28 1.34 1.36 1.28 1.18 1.08 1.05 0.99 0.88 0.85 0.75 0.56 0.49 0.41
0.76 0.78 0.75 0.79 0.80 0.82 0.88 1.03 1.14 1.25 1.41 1.55 1.64 1.63 1.65 1.62 1.55 1.45 1.38 1.36 1.32 1.25 1.18 1.17 1.19 1.23 1.26 1.31 1.37 1.37 1.34 1.38 1.37 1.31 1.23 1.16 1.05 0.98 0.99 0.96 0.78 0.64 0.51
0.89 0.90 0.89 0.98 1.01 0.98 0.92 0.94 0.99 1.02 1.14 1.33 1.47 1.51 1.55 1.52 1.42 1.33 1.26 1.22 1.16 1.15 1.17 1.22 1.26 1.28 1.30 1.30 1.33 1.31 1.28 1.30 1.30 1.28 1.26 1.21 1.13 1.12 1.13 1.12 1.15 1.04 0.82
0.94 0.99 1.03 1.04 1.00 0.96 0.94 0.94 0.98 0.95 0.92 1.01 1.14 1.23 1.30 1.30 1.24 1.16 1.09 1.08 1.07 1.07 1.11 1.17 1.22 1.23 1.22 1.21 1.21 1.20 1.18 1.21 1.24 1.23 1.22 1.18 1.09 1.10 1.10 1.12 1.20 1.30 1.15
0.81 0.90 0.91 0.88 0.91 0.92 0.91 0.93 0.97 1.00 0.94 0.91 0.97 1.06 1.06 1.04 1.00 0.99 0.94 0.88 0.89 0.90 0.93 1.00 1.07 1.09 1.08 1.06 1.08 1.07 1.05 1.09 1.09 1.10 1.15 1.13 1.06 1.04 1.06 1.09 1.13 1.23 1.29
0.63 0.66 0.67 0.70 0.74 0.79 0.85 0.93 1.03 1.03 0.91 0.93 0.97 0.97 0.99 1.00 0.92 0.86 0.85 0.86 0.83 0.82 0.86 0.89 0.93 0.95 0.96 0.97 0.97 0.94 0.93 0.94 0.94 0.96 0.99 1.01 1.01 1.04 1.04 1.06 1.11 1.16 1.24
0.55 0.54 0.53 0.52 0.52 0.57 0.62 0.71 0.80 0.81 0.79 0.82 0.90 0.87 0.89 0.97 0.94 0.86 0.82 0.81 0.77 0.71 0.71 0.74 0.77 0.78 0.79 0.80 0.83 0.83 0.82 0.81 0.80 0.81 0.86 0.88 0.91 0.95 0.98 1.04 1.09 1.12 1.15
0.42 0.39 0.39 0.41 0.41 0.41 0.46 0.55 0.63 0.63 0.65 0.68 0.73 0.74 0.74 0.80 0.82 0.85 0.84 0.80 0.78 0.72 0.64 0.62 0.63 0.64 0.66 0.67 0.69 0.70 0.71 0.72 0.72 0.72 0.75 0.77 0.83 0.89 0.90 0.93 0.97 0.98 0.99
0.31 0.27 0.27 0.28 0.29 0.32 0.38 0.42 0.45 0.47 0.49 0.50 0.51 0.54 0.59 0.62 0.62 0.64 0.68 0.68 0.68 0.65 0.61 0.57 0.54 0.54 0.57 0.61 0.63 0.65 0.67 0.67 0.68 0.69 0.71 0.73 0.76 0.78 0.80 0.85 0.87 0.87 0.88
0.19 0.17 0.17 0.18 0.20 0.22 0.26 0.30 0.35 0.39 0.43 0.44 0.43 0.45 0.47 0.49 0.51 0.49 0.48 0.48 0.51 0.53 0.53 0.53 0.53 0.51 0.50 0.53 0.57 0.60 0.64 0.66 0.69 0.69 0.70 0.73 0.79 0.80 0.78 0.77 0.77 0.78 0.83
0.12 0.11 0.10 0.11 0.14 0.15 0.17 0.22 0.27 0.32 0.35 0.38 0.40 0.41 0.41 0.41 0.42 0.42 0.41 0.39 0.40 0.43 0.46 0.51 0.55 0.59 0.60 0.73 0.69 0.63 0.64 0.68 0.69 0.67 0.65 0.64 0.68 0.67 0.68 0.67 0.67 0.71 0.80
0.09 0.09 0.08 0.08 0.08 0.10 0.16 0.21 0.25 0.26 0.28 0.30 0.30 0.30 0.32 0.34 0.35 0.38 0.42 0.46 0.51 0.52 0.56 0.60 0.65 0.69 0.76 0.84 0.76 0.71 0.63 0.65 0.66 0.63 0.59 0.54 0.52 0.54 0.47 0.50 0.54 0.57 0.65
0.05 0.05 0.05 0.05 0.06 0.08 0.13 0.20 0.28 0.30 0.33 0.36 0.34 0.31 0.32 0.38 0.43 0.49 0.56 0.65 0.72 0.76 0.80 0.83 0.84 0.84 0.83 0.81 0.72 0.69 0.61 0.58 0.54 0.49 0.44 0.40 0.37 0.35 0.37 0.39 0.47 0.45 0.44
0.05 0.04 0.05 0.06 0.07 0.09 0.11 0.16 0.25 0.32 0.36 0.41 0.45 0.45 0.47 0.55 0.61 0.70 0.79 0.81 0.87 0.87 0.84 0.82 0.80 0.77 0.72 0.67 0.57 0.49 0.43 0.43 0.42 0.37 0.34 0.34 0.31 0.37 0.43 0.43 0.45 0.36 0.31
0.09 0.06 0.07 0.08 0.11 0.14 0.17 0.23 0.31 0.40 0.46 0.51 0.57 0.59 0.61 0.64 0.66 0.68 0.70 0.70 0.69 0.67 0.61 0.57 0.53 0.50 0.47 0.45 0.40 0.37 0.32 0.30 0.29 0.29 0.29 0.34 0.34 0.40 0.47 0.43 0.39 0.32 0.28
0.19 0.17 0.17 0.19 0.22 0.26 0.32 0.40 0.46 0.55 0.61 0.61 0.64 0.65 0.63 0.62 0.58 0.51 0.45 0.43 0.40 0.36 0.32 0.29 0.27 0.25 0.24 0.25 0.25 0.26 0.25 0.26 0.26 0.25 0.26 0.29 0.39 0.45 0.48 0.41 0.33 0.34 0.38
0.20 0.24 0.28 0.28 0.29 0.35 0.43 0.50 0.55 0.57 0.53 0.47 0.43 0.41 0.35 0.32 0.30 0.26 0.24 0.23 0.23 0.22 0.20 0.17 0.16 0.14 0.13 0.15 0.17 0.19 0.23 0.26 0.24 0.23 0.23 0.27 0.39 0.41 0.39 0.37 0.36 0.40 0.38
0.09 0.12 0.18 0.20 0.21 0.22 0.25 0.28 0.26 0.24 0.21 0.17 0.15 0.15 0.14 0.14 0.15 0.14 0.14 0.14 0.15 0.15 0.14 0.14 0.13 0.12 0.12 0.14 0.18 0.21 0.24 0.29 0.28 0.25 0.27 0.31 0.33 0.31 0.32 0.35 0.39 0.38 0.34
0.06 0.06 0.06 0.07 0.07 0.06 0.07 0.07 0.06 0.06 0.06 0.06 0.07 0.07 0.08 0.09 0.09 0.09 0.09 0.10 0.12 0.13 0.14 0.15 0.15 0.15 0.15 0.15 0.18 0.23 0.26 0.29 0.31 0.30 0.29 0.28 0.27 0.28 0.29 0.31 0.33 0.34 0.35
0.06 0.06 0.07 0.07 0.07 0.07 0.06 0.06 0.06 0.06 0.06 0.07 0.08 0.09 0.10 0.11 0.12 0.12 0.13 0.15 0.16 0.18 0.20 0.19 0.20 0.21 0.21 0.20 0.28 0.32 0.32 0.35 0.37 0.38 0.34 0.30 0.29 0.28 0.27 0.28 0.29 0.31 0.34
0.05 0.06 0.07 0.09 0.09 0.08 0.08 0.08 0.08 0.08 0.08 0.09 0.09 0.10 0.11 0.12 0.13 0.14 0.15 0.17 0.19 0.21 0.23 0.22 0.22 0.21 0.23 0.27 0.33 0.35 0.37 0.40 0.46 0.48 0.38 0.31 0.28 0.29 0.28 0.29 0.31 0.34 0.37